Weather History for Billings, MT

Change the Weather History Date:

Thursday, January 30, 2014

  Actual Average Record
Temperature  
Mean Temperature 14 °F 28 °F  
Max Temperature 23 °F 37 °F 59 °F (1992)
Min Temperature 4 °F 19 °F -21 °F (1996)
Degree Days  
Heating Degree Days 51 37  
Month to date heating degree days 1013 1138  
Since 1 July heating degree days 3938 3959  
Cooling Degree Days 0 0  
Month to date cooling degree days 0 0  
Year to date cooling degree days 0 0  
Moisture  
Dew Point 10 °F    
Average Humidity 83    
Maximum Humidity 92    
Minimum Humidity 73    
Precipitation  
Precipitation 0.18 in 0.01 in 0.36 in (1974)
Month to date precipitation 0.80 0.46  
Year to date precipitation 0.80 0.46  
Snow  
Snow 5.20 in 0.30 in 3.90 in (1974)
Month to date snowfall 15.3 8.2  
Since 1 July snowfall 50.3 28.1  
Snow Depth 2.00 in    
Sea Level Pressure  
Sea Level Pressure 29.87 in    
Wind  
Wind Speed 7 mph (ENE)    
Max Wind Speed 20 mph    
Max Gust Speed 23 mph    
Visibility 3 miles    
Events Snow    
T = Trace of Precipitation, MM = Missing Value Source: NWS Daily Summary

Daily Weather History Graph

Daily Weather History Graph

Search for Another Location

Airport:

Trip Planner

Search our weather history database for the weather conditions in past years. The results will help you decide how hot, cold, wet, or windy it might be!

Date:

Astronomy

Jan. 30, 2014 Rise Set
Actual Time 7:38 AM MST 5:17 PM MST
Civil Twilight 7:06 AM MST 5:49 PM MST
Nautical Twilight 6:30 AM MST 6:25 PM MST
Astronomical Twilight 5:55 AM MST 7:00 PM MST
Moon 7:04 AM MST (1/30) 5:36 PM MST (1/30)
Length of Visible Light 10h 43m
Length of Day
9h 39m
Waning Crescent, 0% of the Moon is Illuminated
Jan 30
Waning Crescent
Jan 30
New
Feb 6
First Quarter
Feb 14
Full
Feb 22
Last Quarter

Hourly Weather History & Observations

Time (MST) Temp. Windchill Dew Point Humidity Pressure Visibility Wind Dir Wind Speed Gust Speed Precip Events Conditions
12:01 AM 23.0 °F 9.6 °F 19.9 °F 88% 29.59 in 9.0 mi NE 16.1 mph - 0.00 in Snow Light Snow
12:38 AM 21.9 °F 8.2 °F 19.0 °F 89% 29.61 in 2.5 mi NE 16.1 mph - 0.00 in Snow Light Snow
12:53 AM 21.0 °F 7.6 °F 19.0 °F 92% 29.70 in 2.0 mi NNE 15.0 mph - 0.00 in Snow Light Snow
1:00 AM 21.0 °F 6.2 °F 18.0 °F 88% 29.62 in 4.0 mi NE 18.4 mph - 0.00 in Snow Light Snow
1:06 AM 19.9 °F 4.3 °F 17.1 °F 89% 29.62 in 1.5 mi NE 19.6 mph - 0.00 in Snow Light Snow
1:12 AM 19.0 °F 4.0 °F 17.1 °F 92% 29.62 in 0.8 mi NE 17.3 mph - 0.00 in Snow Light Snow
1:23 AM 19.0 °F 6.8 °F 17.1 °F 92% 29.64 in 0.8 mi NE 11.5 mph - 0.01 in Snow Light Snow
1:34 AM 19.0 °F 6.1 °F 17.1 °F 92% 29.65 in 1.0 mi NE 12.7 mph - 0.01 in Snow Light Snow
1:44 AM 19.0 °F 6.1 °F 17.1 °F 92% 29.65 in 0.8 mi NE 12.7 mph - 0.02 in Snow Light Snow
1:53 AM 19.0 °F 6.8 °F 17.1 °F 92% 29.75 in 0.8 mi NE 11.5 mph - 0.02 in Snow Light Snow
1:59 AM 19.0 °F 6.8 °F 17.1 °F 92% 29.66 in 1.2 mi NE 11.5 mph - 0.00 in Snow Light Snow
2:07 AM 19.0 °F 4.0 °F 16.0 °F 88% 29.67 in 0.8 mi NE 17.3 mph - 0.00 in Snow Light Snow
2:16 AM 18.0 °F 4.2 °F 16.0 °F 92% 29.68 in 1.0 mi NE 13.8 mph - 0.01 in Snow Light Snow
2:24 AM 18.0 °F 4.2 °F 15.1 °F 88% 29.68 in 1.5 mi NE 13.8 mph - 0.01 in Snow Light Snow
2:31 AM 18.0 °F 4.2 °F 15.1 °F 88% 29.69 in 1.2 mi NE 13.8 mph - 0.01 in Snow Light Snow
2:45 AM 17.1 °F 3.6 °F 15.1 °F 92% 29.69 in 1.2 mi NE 12.7 mph - 0.01 in Snow Light Snow
2:53 AM 17.1 °F 2.5 °F 15.1 °F 92% 29.80 in 1.8 mi NE 15.0 mph - 0.01 in Snow Light Snow
3:31 AM 17.1 °F 4.3 °F 14.0 °F 88% 29.72 in 1.5 mi ENE 11.5 mph - 0.01 in Snow Light Snow
3:53 AM 16.0 °F 5.3 °F 12.9 °F 88% 29.83 in 2.0 mi ENE 8.1 mph - 0.01 in Snow Light Snow
4:23 AM 15.1 °F 2.5 °F 12.9 °F 91% 29.74 in 1.5 mi ENE 10.4 mph - 0.02 in Snow Light Snow
4:44 AM 15.1 °F 1.8 °F 12.0 °F 88% 29.75 in 2.0 mi ENE 11.5 mph - 0.02 in Snow Light Snow
4:46 AM 15.1 °F 1.8 °F 12.0 °F 88% 29.75 in 2.5 mi ENE 11.5 mph - 0.02 in Snow Light Snow
4:53 AM 15.1 °F 2.5 °F 12.0 °F 88% 29.86 in 2.5 mi ENE 10.4 mph - 0.02 in Snow Light Snow
5:34 AM 14.0 °F 2.0 °F 10.9 °F 88% 29.78 in 1.8 mi ENE 9.2 mph - 0.01 in Snow Light Snow
5:46 AM 14.0 °F 3.9 °F 12.0 °F 92% 29.79 in 2.0 mi ENE 6.9 mph - 0.01 in Snow Light Snow
5:53 AM 14.0 °F 2.0 °F 10.9 °F 88% 29.90 in 1.2 mi NE 9.2 mph - 0.02 in Snow Light Snow
6:07 AM 14.0 °F 2.9 °F 10.9 °F 88% 29.80 in 1.5 mi NE 8.1 mph - 0.00 in Snow Light Snow
6:18 AM 12.9 °F 2.6 °F 10.9 °F 92% 29.80 in 2.0 mi ENE 6.9 mph - 0.00 in Snow Light Snow
6:28 AM 12.9 °F 2.6 °F 10.9 °F 92% 29.80 in 3.0 mi ENE 6.9 mph - 0.00 in Snow Light Snow
6:46 AM 12.9 °F 1.6 °F 10.0 °F 88% 29.81 in 5.0 mi ENE 8.1 mph - 0.00 in Snow Light Snow
6:53 AM 12.9 °F 0.7 °F 10.0 °F 88% 29.92 in 5.0 mi ENE 9.2 mph - 0.00 in Snow Light Snow
7:14 AM 12.9 °F 3.8 °F 10.9 °F 92% 29.82 in 2.0 mi NE 5.8 mph - 0.00 in Snow Light Snow
7:25 AM 12.9 °F 1.6 °F 10.0 °F 88% 29.82 in 1.5 mi ENE 8.1 mph - 0.01 in Snow Light Snow
7:29 AM 12.9 °F 1.6 °F 10.0 °F 88% 29.83 in 0.5 mi ENE 8.1 mph - 0.01 in Snow Light Snow
7:42 AM 12.9 °F 1.6 °F 10.0 °F 88% 29.83 in 1.0 mi ENE 8.1 mph - 0.02 in Snow Light Snow
7:53 AM 12.9 °F -0.2 °F 9.0 °F 84% 29.96 in 1.0 mi ENE 10.4 mph - 0.02 in Snow Light Snow
8:03 AM 12.9 °F 1.6 °F 9.0 °F 84% 29.85 in 3.0 mi NE 8.1 mph - 0.00 in Snow Light Snow
8:19 AM 12.9 °F 2.6 °F 9.0 °F 84% 29.86 in 2.0 mi ENE 6.9 mph - 0.00 in Snow Light Snow
8:30 AM 12.9 °F 2.6 °F 10.0 °F 88% 29.86 in 1.2 mi ENE 6.9 mph - 0.00 in Snow Light Snow
8:53 AM 12.9 °F 1.6 °F 9.0 °F 84% 30.00 in 1.0 mi East 8.1 mph - 0.01 in Snow Light Snow
8:59 AM 12.9 °F 2.6 °F 10.0 °F 88% 29.87 in 0.8 mi East 6.9 mph - 0.00 in Snow Light Snow
9:19 AM 12.9 °F 3.8 °F 9.0 °F 84% 29.88 in 1.0 mi East 5.8 mph - 0.01 in Snow Light Snow
9:29 AM 12.9 °F 2.6 °F 9.0 °F 84% 29.88 in 0.8 mi East 6.9 mph - 0.02 in Snow Light Snow
9:53 AM 12.9 °F 2.6 °F 10.0 °F 88% 30.03 in 0.8 mi East 6.9 mph - 0.03 in Snow Light Snow
10:15 AM 12.9 °F 2.6 °F 9.0 °F 84% 29.90 in 1.0 mi East 6.9 mph - 0.01 in Snow Light Snow
10:53 AM 12.9 °F 3.8 °F 9.0 °F 84% 30.06 in 1.0 mi East 5.8 mph - 0.01 in Snow Light Snow
11:11 AM 12.9 °F 2.6 °F 8.1 °F 81% 29.91 in 1.0 mi ENE 6.9 mph - 0.01 in Snow Light Snow
11:15 AM 12.9 °F 1.6 °F 8.1 °F 81% 29.91 in 3.0 mi ENE 8.1 mph - 0.01 in Snow Light Snow
11:53 AM 14.0 °F 5.1 °F 9.0 °F 80% 30.05 in 9.0 mi ENE 5.8 mph - 0.01 in Snow Light Snow
12:53 PM 15.1 °F 6.4 °F 8.1 °F 74% 30.04 in 10.0 mi ENE 5.8 mph - 0.00 in   Mostly Cloudy
1:53 PM 14.0 °F 2.0 °F 6.1 °F 71% 30.04 in 10.0 mi NE 9.2 mph - N/A   Overcast
2:53 PM 12.9 °F 1.6 °F 6.1 °F 74% 30.06 in 5.0 mi East 8.1 mph - 0.00 in Snow Light Snow
3:14 PM 12.9 °F 3.8 °F 7.0 °F 77% 29.89 in 2.5 mi East 5.8 mph - 0.00 in Snow Light Snow
3:39 PM 12.0 °F 1.5 °F 7.0 °F 80% 29.89 in 2.5 mi East 6.9 mph - 0.00 in Snow Light Snow
3:53 PM 12.9 °F 2.6 °F 7.0 °F 77% 30.06 in 2.5 mi ESE 6.9 mph - 0.00 in Snow Light Snow
4:05 PM 12.0 °F 2.7 °F 7.0 °F 80% 29.90 in 3.0 mi ESE 5.8 mph - 0.00 in Snow Light Snow
4:11 PM 12.9 °F 3.8 °F 7.0 °F 77% 29.90 in 2.0 mi East 5.8 mph - 0.00 in Snow Light Snow
4:21 PM 12.0 °F 2.7 °F 7.0 °F 80% 29.90 in 1.5 mi East 5.8 mph - 0.01 in Snow Light Snow
4:37 PM 12.0 °F 4.1 °F 8.1 °F 84% 29.90 in 0.8 mi SE 4.6 mph - 0.01 in Snow Light Snow
4:53 PM 12.0 °F 5.9 °F 8.1 °F 84% 30.08 in 0.8 mi SSE 3.5 mph - 0.01 in Snow Light Snow
5:14 PM 12.0 °F 5.9 °F 9.0 °F 88% 29.91 in 2.0 mi South 3.5 mph - 0.00 in Snow Light Snow
5:26 PM 12.0 °F 4.1 °F 9.0 °F 88% 29.90 in 1.5 mi SE 4.6 mph - 0.00 in Snow Light Snow
5:41 PM 12.0 °F 2.7 °F 8.1 °F 84% 29.91 in 2.0 mi SE 5.8 mph - 0.01 in Snow Light Snow
5:45 PM 12.0 °F 2.7 °F 9.0 °F 88% 29.91 in 2.0 mi SSE 5.8 mph - 0.01 in Snow Light Snow
5:53 PM 12.0 °F 4.1 °F 9.0 °F 88% 30.08 in 2.0 mi SSE 4.6 mph - 0.01 in Snow Light Snow
6:40 PM 10.9 °F 2.9 °F 7.0 °F 84% 29.90 in 4.0 mi East 4.6 mph - 0.00 in Snow Light Snow
6:53 PM 10.9 °F 2.9 °F 7.0 °F 84% 30.09 in 6.0 mi ESE 4.6 mph - 0.00 in   Overcast
7:53 PM 9.0 °F - 7.0 °F 92% 30.09 in 9.0 mi Calm Calm - 0.00 in Snow Light Snow
8:22 PM 8.1 °F - 6.1 °F 92% 29.89 in 6.0 mi Calm Calm - 0.00 in Snow Light Snow
8:30 PM 8.1 °F - 5.0 °F 87% 29.89 in 6.0 mi Calm Calm - 0.00 in Snow Light Snow
8:53 PM 8.1 °F 1.4 °F 3.9 °F 83% 30.07 in 9.0 mi East 3.5 mph - 0.00 in   Scattered Clouds
9:53 PM 6.1 °F - 3.0 °F 87% 30.08 in 10.0 mi Calm Calm - N/A   Scattered Clouds
10:53 PM 7.0 °F -4.5 °F 3.0 °F 84% 30.06 in 10.0 mi SSE 6.9 mph - 0.00 in   Scattered Clouds
11:53 PM 7.0 °F -3.3 °F 3.0 °F 84% 30.04 in 10.0 mi SE 5.8 mph - N/A   Partly Cloudy